EW4463 Weather Reports


time (UTC)temp
F
wind
direction
speed
knots
gust
knots
rain 1hr
in
rain 24hr
in
rain mn
in
humidity
%
barometer
mb
20260505173108 54 328 18.2 21.7 0.00 0.00 0.00 40 1009.8
20260505172606 53 245 16.5 19.1 0.00 0.00 0.00 40 1009.7
20260505172102 55 325 11.3 17.4 0.00 0.00 0.00 44 1009.7
20260505171557 52 310 8.7 13.9 0.00 0.00 0.00 44 1009.8
20260505171054 53 319 20.9 23.5 0.00 0.00 0.00 40 1009.7
20260505170551 53 130 16.5 22.6 0.00 0.00 0.00 41 1009.9
20260505170048 53 13 12.2 18.2 0.00 0.00 0.00 42 1009.7
20260505165543 52 306 12.2 14.8 0.00 0.00 0.00 43 1009.7
20260505165039 52 344 10.4 12.2 0.00 0.00 0.00 41 1009.6
20260505164535 52 349 13.9 20.0 0.00 0.00 0.00 44 1009.8
20260505164033 52 313 8.7 14.8 0.00 0.00 0.00 45 1009.6
20260505163531 51 319 7.0 9.6 0.00 0.00 0.00 47 1009.7
20260505163027 53 337 17.4 21.7 0.00 0.00 0.00 44 1009.8
20260505162521 51 357 4.3 9.6 0.00 0.00 0.00 43 1009.9
20260505162018 51 327 10.4 20.9 0.00 0.00 0.00 47 1009.8
20260505161514 51 338 9.6 14.8 0.00 0.00 0.00 45 1010.3
20260505161012 51 15 13.0 19.1 0.00 0.00 0.00 45 1010.0
20260505160510 51 307 9.6 15.6 0.00 0.00 0.00 43 1009.8
20260505152946 50 243 12.2 19.1 0.00 0.00 0.00 44 1009.5
20260505152443 51 301 14.8 19.1 0.00 0.00 0.00 43 1009.5
20260505151943 50 305 18.2 20.0 0.00 0.00 0.00 43 1009.6
20260505151439 50 280 14.8 17.4 0.00 0.00 0.00 52 1009.7
20260505150937 50 185 9.6 17.4 0.00 0.00 0.00 51 1009.7
20260505150434 50 271 14.8 20.0 0.00 0.00 0.00 50 1009.7
20260505140404 48 306 13.0 14.8 0.00 0.00 0.00 51 1010.1
20260505124817 46 276 7.8 9.6 0.00 0.00 0.00 61 1009.9
20260505124314 45 283 7.0 8.7 0.00 0.00 0.00 63 1010.0
20260505123810 45 265 9.6 11.3 0.00 0.00 0.00 62 1010.1
20260505123307 45 286 7.8 11.3 0.00 0.00 0.00 64 1010.0
20260505122803 45 279 8.7 12.2 0.00 0.00 0.00 62 1010.0
20260505122301 45 283 8.7 9.6 0.00 0.00 0.00 63 1010.0
20260505121757 44 278 7.8 8.7 0.00 0.00 0.00 64 1009.8
20260505121254 44 270 5.2 8.7 0.00 0.00 0.00 65 1009.9
20260505120750 43 280 7.0 7.8 0.00 0.00 0.00 67 1009.9
20260505120246 43 267 6.1 7.0 0.00 0.00 0.00 68 1009.6
20260505115745 43 285 4.3 6.1 0.00 0.00 0.00 68 1009.4
20260505115243 42 288 3.5 4.3 0.00 0.00 0.00 70 1009.0
20260505114740 43 301 1.7 2.6 0.00 0.00 0.00 68 1008.5
20260505114236 43 315 0.9 1.7 0.00 0.00 0.00 61 1008.5
20260505113733 43 298 1.7 1.7 0.00 0.00 0.00 58 1008.4
20260505113229 44 338 0.9 0.9 0.00 0.00 0.00 58 1008.1
20260505112725 43 339 0.0 0.9 0.00 0.00 0.00 59 1008.1
20260505112223 43 314 0.9 1.7 0.00 0.00 0.00 60 1008.2
20260505111723 42 303 1.7 1.7 0.00 0.00 0.00 61 1008.3
20260505111219 42 292 1.7 2.6 0.00 0.00 0.00 63 1008.4
20260505110715 41 270 2.6 2.6 0.00 0.00 0.00 64 1008.4
20260505110213 41 274 1.7 1.7 0.00 0.00 0.00 65 1008.4
20260505102148 43 300 2.6 4.3 0.00 0.00 0.00 61 1008.3
20260505101647 43 317 2.6 2.6 0.00 0.00 0.00 60 1008.0
20260505101143 44 331 1.7 2.6 0.00 0.00 0.00 59 1008.0
20260505100639 44 320 1.7 2.6 0.00 0.00 0.00 57 1007.8
20260505100136 44 312 2.6 2.6 0.00 0.00 0.00 57 1008.0
20260505095632 44 337 2.6 5.2 0.00 0.00 0.00 56 1007.9
20260505095130 44 334 2.6 2.6 0.00 0.00 0.00 56 1007.5
20260505094626 44 333 2.6 4.3 0.00 0.00 0.00 56 1007.7
20260505094122 44 334 3.5 5.2 0.00 0.00 0.00 55 1007.7
20260505093618 45 347 4.3 7.0 0.00 0.00 0.00 54 1007.7
20260505093116 45 350 3.5 6.1 0.00 0.00 0.00 54 1007.8
20260505092613 45 335 6.1 7.0 0.00 0.00 0.00 53 1007.9
20260505092112 46 344 6.1 7.0 0.00 0.00 0.00 52 1008.1
20260505091608 46 350 4.3 8.7 0.00 0.00 0.00 51 1008.0
20260505091106 46 327 10.4 15.6 0.00 0.00 0.00 50 1007.9
20260505090604 46 327 6.1 9.6 0.00 0.00 0.00 50 1007.6
20260505085559 46 335 8.7 15.6 0.00 0.00 0.00 49 1007.6
20260505085057 46 346 7.8 9.6 0.00 0.00 0.00 51 1007.4
20260505084555 46 353 6.1 8.7 0.00 0.00 0.00 51 1007.2
20260505084053 46 348 9.6 13.0 0.00 0.00 0.00 52 1007.2
20260505083549 46 341 4.3 12.2 0.00 0.00 0.00 54 1007.1
20260505083046 46 333 4.3 6.1 0.00 0.00 0.00 58 1007.1
20260505082542 46 321 4.3 5.2 0.00 0.00 0.00 58 1007.0
20260505082039 46 338 2.6 4.3 0.00 0.00 0.00 58 1006.6
20260505081535 46 348 3.5 5.2 0.00 0.00 0.00 58 1006.5
20260505081032 46 334 3.5 5.2 0.00 0.00 0.00 59 1006.4
20260505080529 46 1 4.3 8.7 0.00 0.00 0.00 58 1006.2
20260505080026 46 352 3.5 7.8 0.00 0.00 0.00 58 1005.9
20260505075521 47 3 5.2 7.8 0.00 0.00 0.00 57 1006.0
20260505075018 47 11 5.2 8.7 0.00 0.00 0.00 57 1005.7
20260505074516 47 349 6.1 9.6 0.00 0.00 0.00 57 1005.6
20260505074013 47 334 6.1 9.6 0.00 0.00 0.00 58 1005.6
20260505073510 47 357 6.1 11.3 0.00 0.00 0.00 59 1005.5
20260505073008 47 357 4.3 7.8 0.00 0.00 0.00 60 1005.9
20260505072504 47 3 2.6 6.1 0.00 0.00 0.00 61 1005.7
20260505071959 47 352 6.1 7.8 0.00 0.00 0.00 58 1005.6
20260505071455 48 330 4.3 11.3 0.00 0.00 0.00 56 1005.8
20260505070954 48 313 4.3 9.6 0.00 0.00 0.00 55 1005.8
20260505070450 49 349 7.8 12.2 0.00 0.00 0.00 55 1005.7
20260505065946 49 348 9.6 15.6 0.00 0.00 0.00 55 1005.5
20260505065443 49 1 7.0 11.3 0.00 0.00 0.00 57 1005.5
20260505064939 49 348 9.6 14.8 0.00 0.00 0.00 56 1005.3
20260505064436 49 2 13.0 14.8 0.00 0.00 0.00 55 1005.0
20260505063935 50 359 5.2 9.6 0.00 0.00 0.00 55 1005.0
20260505063431 50 336 8.7 14.8 0.00 0.00 0.00 53 1005.0
20260505062927 51 3 7.8 13.0 0.00 0.00 0.00 52 1004.9
20260505062425 51 355 9.6 15.6 0.00 0.00 0.00 52 1004.5
20260505061921 51 324 7.8 13.9 0.00 0.00 0.00 51 1004.9
20260505061420 51 341 7.8 13.0 0.00 0.00 0.00 52 1004.8
20260505060917 51 343 10.4 13.0 0.00 0.00 0.00 51 1004.6
20260505060414 51 335 11.3 13.9 0.00 0.00 0.00 51 1004.7
20260505055910 51 327 8.7 18.2 0.00 0.00 0.00 51 1004.7
20260505055406 52 2 8.7 17.4 0.00 0.00 0.00 50 1004.5
20260505054903 52 309 12.2 14.8 0.00 0.00 0.00 50 1004.7
20260505054400 52 6 7.8 13.0 0.00 0.00 0.00 51 1004.5
20260505053858 52 352 6.1 14.8 0.00 0.00 0.00 51 1004.8
20260505053355 52 310 9.6 19.1 0.00 0.00 0.00 51 1004.7
20260505052852 53 9 12.2 18.2 0.00 0.00 0.00 52 1004.6
20260505052349 53 304 9.6 19.1 0.00 0.00 0.00 52 1004.6
20260505051846 53 307 9.6 14.8 0.00 0.00 0.00 52 1004.2
20260505051343 54 322 7.8 14.8 0.00 0.00 0.00 52 1004.2
20260505050841 54 330 7.8 14.8 0.00 0.00 0.00 54 1004.3
20260505050340 54 352 8.7 13.0 0.00 0.00 0.00 53 1003.8
20260505041307 56 346 10.4 13.0 0.00 0.00 0.00 46 1002.8
20260505040804 56 314 7.0 9.6 0.00 0.00 0.00 47 1002.7
20260505040301 56 357 7.0 8.7 0.00 0.00 0.00 47 1003.0
20260505035758 57 282 7.0 11.3 0.00 0.00 0.00 46 1002.8
20260505035254 57 302 11.3 13.9 0.00 0.00 0.00 45 1003.0
20260505034751 58 317 13.0 18.2 0.00 0.00 0.00 43 1002.9
20260505034248 57 324 12.2 14.8 0.00 0.00 0.00 44 1003.1
20260505033744 58 316 11.3 14.8 0.00 0.00 0.00 44 1002.8
20260505033242 59 323 14.8 18.2 0.00 0.00 0.00 42 1002.9
20260505032740 59 278 12.2 13.9 0.00 0.00 0.00 42 1002.5
20260505032235 59 158 13.0 15.6 0.00 0.00 0.00 41 1002.6
20260505031733 59 277 12.2 18.2 0.00 0.00 0.00 40 1002.3
20260505031229 59 306 9.6 17.4 0.00 0.00 0.00 41 1002.3
20260505030726 60 296 9.6 15.6 0.00 0.00 0.00 42 1002.2
20260505030222 59 278 13.0 14.8 0.00 0.00 0.00 40 1002.1
20260505025718 59 351 12.2 14.8 0.00 0.00 0.00 39 1001.7
20260505025217 60 300 11.3 13.0 0.00 0.00 0.00 41 1001.9
20260505024715 59 281 12.2 13.9 0.00 0.00 0.00 42 1001.8
20260505024211 60 325 12.2 14.8 0.00 0.00 0.00 41 1001.6
20260505023709 60 139 13.0 14.8 0.00 0.00 0.00 40 1001.4
20260505023206 60 322 8.7 11.3 0.00 0.00 0.00 41 1001.3
20260505022704 61 315 7.8 13.9 0.00 0.00 0.00 40 1001.0
20260505022200 61 40 7.8 18.2 0.00 0.00 0.00 38 1001.1
20260505021657 62 307 12.2 13.9 0.00 0.00 0.00 37 1001.1
20260505021154 62 291 14.8 17.4 0.00 0.00 0.00 37 1000.9
20260505020649 62 318 16.5 20.0 0.00 0.00 0.00 36 1000.8
20260505020145 62 136 14.8 20.9 0.00 0.00 0.00 39 1000.7
20260505015643 62 259 18.2 20.9 0.00 0.00 0.00 38 1000.5
20260505015139 63 346 11.3 14.8 0.00 0.00 0.00 40 1000.6
20260505014636 63 337 10.4 15.6 0.00 0.00 0.00 40 1000.3
20260505014133 63 279 17.4 25.2 0.00 0.00 0.00 39 999.9
20260505013631 63 346 16.5 20.9 0.00 0.00 0.00 39 999.9
20260505013128 64 340 20.0 25.2 0.00 0.00 0.00 38 999.8
20260505012626 64 344 19.1 25.2 0.00 0.00 0.00 38 999.6
20260505012122 65 322 25.2 30.4 0.00 0.00 0.00 38 999.5
20260505011618 65 310 16.5 22.6 0.00 0.00 0.00 40 999.4
20260505011115 65 353 13.9 21.7 0.00 0.00 0.00 40 999.5
20260505010611 66 332 15.6 25.2 0.00 0.00 0.00 40 999.2
20260505010108 66 29 11.3 23.5 0.00 0.00 0.00 41 999.2
20260505005604 67 292 12.2 20.0 0.00 0.00 0.00 42 998.9
20260505005101 67 283 12.2 20.0 0.00 0.00 0.00 42 998.7
20260505004558 68 301 9.6 15.6 0.00 0.00 0.00 43 998.6
20260505004055 68 332 14.8 20.0 0.00 0.00 0.00 41 998.4
20260505003552 68 352 10.4 15.6 0.00 0.00 0.00 43 998.4
20260505003049 69 351 9.6 17.4 0.00 0.00 0.00 42 998.1
20260505002544 70 7 14.8 23.5 0.00 0.00 0.00 41 997.9
20260505002043 70 313 10.4 18.2 0.00 0.00 0.00 42 998.1
20260505001540 71 352 15.6 20.9 0.00 0.00 0.00 41 998.0
20260505001037 71 344 16.5 22.6 0.00 0.00 0.00 41 998.0
20260505000535 72 283 10.4 15.6 0.00 0.00 0.00 42 997.9
20260505000032 72 332 11.3 15.6 0.00 0.00 0.00 42 997.9
20260504235529 72 14 13.0 19.1 0.00 0.00 0.00 42 997.8
20260504235025 72 304 13.0 14.8 0.00 0.00 0.00 42 997.8
20260504234522 73 332 14.8 20.9 0.00 0.00 0.00 41 997.5
20260504234019 73 304 13.0 19.1 0.00 0.00 0.00 41 997.6
20260504233514 73 299 15.6 23.5 0.00 0.00 0.00 41 997.5
20260504233012 74 344 20.0 25.2 0.00 0.00 0.00 40 997.6
20260504232509 75 275 13.0 18.2 0.00 0.00 0.00 41 997.5
20260504232007 75 3 13.9 21.7 0.00 0.00 0.00 41 997.2
20260504231503 77 352 18.2 20.9 0.00 0.00 0.00 38 997.1
20260504230959 78 272 17.4 21.7 0.00 0.00 0.00 37 996.8
20260504230455 78 251 9.6 15.6 0.00 0.00 0.00 36 997.0
20260504225954 78 218 13.0 18.2 0.00 0.00 0.00 36 997.0
20260504225451 77 286 14.8 18.2 0.00 0.00 0.00 36 997.1
20260504224948 77 291 11.3 17.4 0.00 0.00 0.00 38 996.9
20260504224444 77 271 20.0 25.2 0.00 0.00 0.00 36 997.0
20260504223941 77 270 11.3 18.2 0.00 0.00 0.00 38 997.0
20260504223437 77 290 23.5 28.7 0.00 0.00 0.00 35 996.8
20260504222933 78 271 20.9 26.1 0.00 0.00 0.00 35 996.6
20260504222431 78 286 17.4 23.5 0.00 0.00 0.00 35 997.0
20260504221929 77 280 25.2 28.7 0.00 0.00 0.00 35 996.9
20260504221425 77 271 22.6 26.9 0.00 0.00 0.00 35 996.8
20260504220922 77 283 20.0 23.5 0.00 0.00 0.00 36 996.8
20260504220419 77 265 26.1 29.5 0.00 0.00 0.00 35 996.9
20260504215916 78 279 20.0 28.7 0.00 0.00 0.00 36 997.0
20260504215413 78 271 20.9 25.2 0.00 0.00 0.00 36 996.9
20260504214909 77 280 17.4 23.5 0.00 0.00 0.00 36 997.0
20260504214406 78 285 21.7 32.2 0.00 0.00 0.00 35 996.9
20260504213903 79 275 25.2 32.2 0.00 0.00 0.00 33 996.8
20260504213358 77 294 13.0 20.0 0.00 0.00 0.00 38 997.2
20260504212856 77 271 20.9 25.2 0.00 0.00 0.00 37 997.0
20260504212352 77 274 19.1 26.1 0.00 0.00 0.00 36 997.2
20260504211850 77 273 13.9 19.1 0.00 0.00 0.00 38 997.2
20260504211346 77 275 19.1 27.8 0.00 0.00 0.00 37 997.0
20260504210843 78 263 14.8 26.9 0.00 0.00 0.00 36 997.2
20260504210340 77 275 21.7 25.2 0.00 0.00 0.00 35 997.4
20260504205837 78 267 20.0 27.8 0.00 0.00 0.00 36 997.4
20260504205335 77 278 22.6 25.2 0.00 0.00 0.00 37 997.5
20260504204833 78 291 20.9 26.9 0.00 0.00 0.00 35 997.6
20260504204331 78 275 18.2 23.5 0.00 0.00 0.00 36 997.5
20260504203830 78 277 26.1 29.5 0.00 0.00 0.00 35 997.5
20260504203327 78 268 26.1 34.8 0.00 0.00 0.00 35 997.5
20260504202822 78 288 23.5 26.9 0.00 0.00 0.00 35 997.7
20260504202320 78 282 20.9 28.7 0.00 0.00 0.00 36 997.9
20260504201816 78 278 27.8 30.4 0.00 0.00 0.00 36 997.6
20260504201314 78 260 23.5 29.5 0.00 0.00 0.00 35 997.7
20260504200811 77 274 22.6 29.5 0.00 0.00 0.00 36 998.1
20260504200308 77 264 21.7 26.9 0.00 0.00 0.00 36 998.0
20260504195803 77 270 20.9 25.2 0.00 0.00 0.00 37 998.3
20260504195259 77 294 24.3 30.4 0.00 0.00 0.00 36 998.1
20260504194757 77 277 28.7 36.5 0.00 0.00 0.00 36 998.0
20260504194253 77 270 23.5 32.2 0.00 0.00 0.00 37 997.9
20260504193749 77 292 26.1 34.8 0.00 0.00 0.00 36 997.9
20260504193247 77 299 24.3 29.5 0.00 0.00 0.00 36 998.1
20260504192745 77 276 21.7 30.4 0.00 0.00 0.00 35 998.2
20260504192243 77 234 22.6 27.8 0.00 0.00 0.00 36 998.3
20260504191741 77 276 25.2 32.2 0.00 0.00 0.00 35 998.4
20260504191238 77 272 17.4 26.1 0.00 0.00 0.00 36 998.3
20260504190733 77 281 17.4 23.5 0.00 0.00 0.00 36 998.5
20260504190230 76 281 23.5 36.5 0.00 0.00 0.00 36 998.5
20260504185726 77 272 18.2 34.8 0.00 0.00 0.00 35 998.5
20260504185223 76 274 20.0 27.8 0.00 0.00 0.00 34 998.7
20260504184719 77 263 25.2 28.7 0.00 0.00 0.00 35 998.4
20260504184215 76 271 24.3 26.9 0.00 0.00 0.00 35 998.4
20260504183711 76 274 23.5 34.8 0.00 0.00 0.00 34 998.6
20260504183208 76 249 25.2 33.9 0.00 0.00 0.00 34 998.6
20260504182706 76 257 20.0 26.9 0.00 0.00 0.00 35 998.4
20260504182203 75 265 17.4 26.9 0.00 0.00 0.00 37 998.6
20260504181701 76 263 25.2 29.5 0.00 0.00 0.00 36 998.7
20260504181158 76 274 24.3 30.4 0.00 0.00 0.00 36 998.5
20260504180657 76 277 21.7 29.5 0.00 0.00 0.00 35 998.4
20260504180155 75 266 18.2 23.5 0.00 0.00 0.00 35 998.6
20260504175652 75 283 20.9 29.5 0.00 0.00 0.00 34 998.5
20260504175149 75 258 26.9 33.9 0.00 0.00 0.00 34 998.4
20260504174647 75 279 25.2 30.4 0.00 0.00 0.00 35 998.4
20260504174144 75 253 26.9 29.5 0.00 0.00 0.00 34 998.6
20260504173641 76 293 22.6 30.4 0.00 0.00 0.00 35 998.5